Location: Buttermere
(51.3333°N, 1.5167°W)
Time: 01:53:41
(UTC+00:00)

NOSS 2-2 (D) - Pass Details

Date: 18 September 2020
Orbit: 469 x 1739 km, 63.3° (Epoch: 23 October)

Event Time Altitude Azimuth Distance (km) Brightness Sun altitude
Rises 19:20:16 0° 200° (SSW) 2,502 6.7 -11.2°
Reaches altitude 10° 19:22:25 10° 190° (S) 1,628 5.7 -11.5°
Maximum altitude 19:25:38 35° 123° (ESE) 814 3.7 -12.0°
Drops below altitude 10° 19:29:14 10° 57° (ENE) 1,823 5.6 -12.6°
Sets 19:31:46 0° 49° (NE) 2,859 6.7 -12.9°
